(348880) = 2006 SY211

Discovered at Kitt Peak on 2006-09-18 by Spacewatch.

Orbit

Orbit type: Main Belt

Note: WebGL enabled browser required.

epoch2023-09-13.0
epoch JD2460200.5
perihelion date2022-08-22.13540
perihelion JD2459813.63540
argument of perihelion (°)101.94383
ascending node (°)196.60510
inclination (°)10.35151
eccentricity0.2290330
perihelion distance (AU)2.4363217
Tisserand w.r.t. Jupiter3.1
ΔV w.r.t. Earth (km/sec)10.3
semimajor axis (AU)3.1600855
mean anomaly (°)67.87574
mean daily motion (°/day)0.17545090
aphelion distance (AU)3.884
period (years)5.62
P-vector [x]0.47335851
P-vector [y]-0.86185218
P-vector [z]-0.18205091
Q-vector [x]0.87937189
Q-vector [y]0.45030347
Q-vector [z]0.15469926
absolute magnitude16.59
phase slope0.15
uncertainty0
referenceMPEC 2023-X152
observations used146
oppositions10
arc length (days)6289
first opposition used2006
last opposition used2023
residual rms (arc-secs)0.67
perturbers coarse indicatorM-v
perturbers precise indicator003Ek
first observation date used2006-09-18.0
last observation date used2023-12-07.0
computer nameMPCLINUX
JD of orbit computation2456272.471463
perihelion JD uncertainty (days)1.0990E-04
argument of perihelion uncertainty (°)4.3142E-05
ascending node uncertainty (°)3.5232E-05
inclination uncertainty (°)7.8634E-06
eccentricity uncertainty 6.6882E-08
perihelion distance uncertainty (AU)2.3963E-07
Minimum Orbit Intersection Distances (in AU)
for orbit epoch: 2460200.5, reference: E2023-XF2
Mercury2.01196
Venus1.73226
Earth1.44686
Mars1.09118
Jupiter1.5607
Saturn5.31375
Uranus14.7664
Neptune26.3377

Observations

150 total observations over interval: 2006 09 18.42842 – 2023 12 07.235826
These data are available for download (format description).

